Weather in Oktyabrskoye

Russia / Republic of Crimea     45°23′57″N   34°54′34″E
temp.,
°C
wind,
m/s
gust,
m/s
humid.,
%
clouds,
%
prec.,
mm/h
press.,
hPa
HPBL,
m
2 march, tue
tue200:00+2nnw248512 0.0 1029174
03:00+2n358349 0.0 1030233
06:00+1nw238715 0.0 1030137
09:00+2wnw34798 0.0 1030207
12:00+5wnw45550 0.0 10301082
15:00+7w46523 0.0 1028956
18:00+6w596130 0.0 1026638
21:00+3wsw8137365 0.0 1025703
3 march, wed
wed300:00+3wsw916792 0.0 1023574
03:00+4w10168327 0.0 1022717
06:00+4nw7107897 0.0 1021844
09:00+4nnw8107799 0.1 10241060
12:00+5nnw786563 0.0 1025975
15:00+7nnw685532 0.0 1025938
18:00+6nw48560 0.0 1026337
21:00+4nw23680 0.0 102846
4 march, thu
thu400:00+3wsw23670 0.0 102843
03:00+2wsw33700 0.0 102864
06:00+1wsw34750 0.0 102773
09:00+4sw34630 0.0 1027185
12:00+8sw35460 0.0 1025916
15:00+10ssw35430 0.0 10231111
18:00+8w47540 0.0 1021296
21:00+4wsw38690 0.0 1020249
5 march, fri
fri500:00+3ssw22780 0.0 102060
03:00+2ssw23850 0.0 101984
06:00+2ssw23850 0.0 101862
09:00+4s23730 0.0 1017131
12:00+10s35530 0.0 1016506
15:00+13s574533 0.0 10151014
18:00+9s586196 0.0 1014168
21:00+6s487890 0.0 1014162
6 march, sat
sat600:00+6sw3576100 0.0 1014103
03:00+6sw4107899 0.0 1013214
06:00+6w3585100 0.0 101397
09:00+7nw5790100 0.0 1014294
12:00+4n81082100 0.1 1015446
15:00+2n6995100 1.0 1016514
18:00+3nnw5962100 0.8 10181239
21:00+3nw4758100 0.9 1021718